Wetterdaten: aktuell Mittwoch, 08.04.2020 11:25
Datum Zeit Temp. A. Temp. A. min Feuchte A. Luftdruck Regen Wind Richtung Richtung Sonnenschein Solar Taupunkt Windchill Windben
08.04.2020 11:25 17,9 C 17,5 C 42 % 1032,9 hPa 0,0 l/m 2,5 km/h (1 Bft) SO 140 0 min 0 W/m 4,8 C 17,9 C 6,4 km/h (2 Bft)
08.04.2020 11:20 17,5 C 17,3 C 43 % 1032,9 hPa 0,0 l/m 1,0 km/h (0 Bft) S 190 0 min 0 W/m 4,8 C 17,5 C 6,4 km/h (2 Bft)
08.04.2020 11:15 17,3 C 17,1 C 41 % 1033,0 hPa 0,0 l/m 0,5 km/h (0 Bft) W 271 0 min 0 W/m 3,9 C 17,3 C 3,2 km/h (1 Bft)
08.04.2020 11:10 17,1 C 16,9 C 44 % 1032,9 hPa 0,0 l/m 1,6 km/h (1 Bft) S-SW 202 0 min 0 W/m 4,8 C 17,1 C 6,4 km/h (2 Bft)
08.04.2020 11:05 16,9 C 16,7 C 46 % 1033,0 hPa 0,0 l/m 1,2 km/h (1 Bft) SW 219 0 min 0 W/m 5,2 C 16,9 C 8,0 km/h (2 Bft)
08.04.2020 11:00 16,7 C 16,6 C 46 % 1033,1 hPa 0,0 l/m 0,4 km/h (0 Bft) SW 215 0 min 0 W/m 5,0 C 16,7 C 1,6 km/h (1 Bft)
08.04.2020 10:55 16,6 C 16,4 C 47 % 1033,1 hPa 0,0 l/m 0,4 km/h (0 Bft) S 187 0 min 0 W/m 5,2 C 16,6 C 3,2 km/h (1 Bft)
08.04.2020 10:50 16,4 C 16,2 C 48 % 1033,1 hPa 0,0 l/m 1,2 km/h (1 Bft) W-NW 287 0 min 0 W/m 5,4 C 16,4 C 4,8 km/h (1 Bft)
08.04.2020 10:45 16,2 C 15,9 C 47 % 1033,1 hPa 0,0 l/m 0,6 km/h (0 Bft) W 275 0 min 0 W/m 4,9 C 16,2 C 4,8 km/h (1 Bft)
08.04.2020 10:40 15,9 C 15,7 C 46 % 1033,1 hPa 0,0 l/m 0,5 km/h (0 Bft) S-SW 193 0 min 0 W/m 4,3 C 15,9 C 3,2 km/h (1 Bft)
08.04.2020 10:35 15,7 C 15,2 C 52 % 1033,1 hPa 0,0 l/m 1,4 km/h (1 Bft) S-SW 210 0 min 0 W/m 5,9 C 15,7 C 6,4 km/h (2 Bft)
08.04.2020 10:30 15,2 C 14,7 C 53 % 1033,2 hPa 0,0 l/m 2,2 km/h (1 Bft) S-SW 196 0 min 0 W/m 5,7 C 15,2 C 6,4 km/h (2 Bft)
08.04.2020 10:25 14,7 C 14,1 C 56 % 1033,1 hPa 0,0 l/m 0,8 km/h (0 Bft) S-SW 202 0 min 0 W/m 6,0 C 14,7 C 4,8 km/h (1 Bft)
08.04.2020 10:20 14,1 C 13,6 C 59 % 1033,2 hPa 0,0 l/m 1,3 km/h (1 Bft) SW 217 0 min 0 W/m 6,2 C 14,1 C 6,4 km/h (2 Bft)
08.04.2020 10:15 13,6 C 13,3 C 62 % 1033,2 hPa 0,0 l/m 0,7 km/h (0 Bft) S-SW 201 0 min 0 W/m 6,5 C 13,6 C 4,8 km/h (1 Bft)
08.04.2020 10:10 13,3 C 13,1 C 63 % 1033,2 hPa 0,0 l/m 0,4 km/h (0 Bft) S 185 0 min 0 W/m 6,4 C 13,3 C 1,6 km/h (1 Bft)
08.04.2020 10:05 13,1 C 12,9 C 63 % 1033,2 hPa 0,0 l/m 1,0 km/h (0 Bft) S 177 0 min 0 W/m 6,2 C 13,1 C 4,8 km/h (1 Bft)
08.04.2020 10:00 12,9 C 12,7 C 64 % 1033,2 hPa 0,0 l/m 1,2 km/h (1 Bft) S-SW 212 0 min 0 W/m 6,3 C 12,9 C 4,8 km/h (1 Bft)
08.04.2020 09:55 12,7 C 12,6 C 65 % 1033,3 hPa 0,0 l/m 0,5 km/h (0 Bft) S 187 0 min 0 W/m 6,3 C 12,7 C 1,6 km/h (1 Bft)
08.04.2020 09:50 12,6 C 12,5 C 64 % 1033,3 hPa 0,0 l/m 1,0 km/h (0 Bft) S 184 0 min 0 W/m 6,0 C 12,6 C 6,4 km/h (2 Bft)
08.04.2020 09:45 12,5 C 12,3 C 65 % 1033,2 hPa 0,0 l/m 1,6 km/h (1 Bft) S 182 0 min 0 W/m 6,1 C 12,5 C 6,4 km/h (2 Bft)
08.04.2020 09:40 12,3 C 12,1 C 65 % 1033,3 hPa 0,0 l/m 1,9 km/h (1 Bft) S 182 0 min 0 W/m 5,9 C 12,3 C 6,4 km/h (2 Bft)
08.04.2020 09:35 12,1 C 11,8 C 66 % 1033,4 hPa 0,0 l/m 1,4 km/h (1 Bft) S 191 0 min 0 W/m 5,9 C 12,1 C 6,4 km/h (2 Bft)
08.04.2020 09:30 11,8 C 11,5 C 68 % 1033,4 hPa 0,0 l/m 0,7 km/h (0 Bft) S-SW 196 0 min 0 W/m 6,1 C 11,8 C 3,2 km/h (1 Bft)
08.04.2020 09:25 11,5 C 11,2 C 70 % 1033,4 hPa 0,0 l/m 1,7 km/h (1 Bft) S-SW 194 0 min 0 W/m 6,2 C 11,5 C 4,8 km/h (1 Bft)
08.04.2020 09:20 11,2 C 10,8 C 70 % 1033,4 hPa 0,0 l/m 0,6 km/h (0 Bft) S 188 0 min 0 W/m 5,9 C 11,2 C 3,2 km/h (1 Bft)
08.04.2020 09:15 10,8 C 10,6 C 71 % 1033,4 hPa 0,0 l/m 1,3 km/h (1 Bft) S 184 0 min 0 W/m 5,8 C 10,8 C 4,8 km/h (1 Bft)
08.04.2020 09:10 10,6 C 10,3 C 71 % 1033,4 hPa 0,0 l/m 0,0 km/h (0 Bft) S-SO 167 0 min 0 W/m 5,6 C 10,6 C 1,6 km/h (1 Bft)
08.04.2020 09:05 10,3 C 10,1 C 72 % 1033,4 hPa 0,0 l/m 0,0 km/h (0 Bft) S-SO 165 0 min 0 W/m 5,5 C 10,3 C 0,0 km/h (0 Bft)
08.04.2020 09:00 10,1 C 9,7 C 72 % 1033,4 hPa 0,0 l/m 0,0 km/h (0 Bft) S-SO 163 0 min 0 W/m 5,3 C 10,1 C 0,0 km/h (0 Bft)
08.04.2020 08:55 9,7 C 9,4 C 73 % 1033,3 hPa 0,0 l/m 0,6 km/h (0 Bft) S-SO 159 0 min 0 W/m 5,1 C 9,7 C 3,2 km/h (1 Bft)
08.04.2020 08:50 9,4 C 9,1 C 75 % 1033,4 hPa 0,0 l/m 1,6 km/h (1 Bft) S-SO 160 0 min 0 W/m 5,2 C 9,4 C 4,8 km/h (1 Bft)
08.04.2020 08:45 9,1 C 8,6 C 76 % 1033,3 hPa 0,0 l/m 0,7 km/h (0 Bft) S-SO 151 0 min 0 W/m 5,1 C 9,1 C 3,2 km/h (1 Bft)
08.04.2020 08:40 8,6 C 7,8 C 79 % 1033,4 hPa 0,0 l/m 0,0 km/h (0 Bft) NO 40 0 min 0 W/m 5,2 C 8,6 C 0,0 km/h (0 Bft)
08.04.2020 08:35 7,8 C 7,1 C 82 % 1033,4 hPa 0,0 l/m 0,2 km/h (0 Bft) NO 38 0 min 0 W/m 4,9 C 7,8 C 1,6 km/h (1 Bft)
08.04.2020 08:30 7,1 C 6,3 C 84 % 1033,5 hPa 0,0 l/m 0,0 km/h (0 Bft) NO 36 0 min 0 W/m 4,6 C 7,1 C 1,6 km/h (1 Bft)
08.04.2020 08:25 6,3 C 5,9 C 84 % 1033,5 hPa 0,0 l/m 0,0 km/h (0 Bft) NO 36 0 min 0 W/m 3,8 C 6,3 C 0,0 km/h (0 Bft)
08.04.2020 08:20 5,9 C 5,6 C 84 % 1033,5 hPa 0,0 l/m 0,0 km/h (0 Bft) NO 36 0 min 0 W/m 3,4 C 5,9 C 1,6 km/h (1 Bft)
08.04.2020 08:15 5,6 C 5,4 C 84 % 1033,5 hPa 0,0 l/m 0,0 km/h (0 Bft) NO 36 0 min 0 W/m 3,1 C 5,6 C 0,0 km/h (0 Bft)
08.04.2020 08:10 5,4 C 5,3 C 84 % 1033,6 hPa 0,0 l/m 0,0 km/h (0 Bft) NO 36 0 min 0 W/m 2,9 C 5,4 C 0,0 km/h (0 Bft)
08.04.2020 08:05 5,3 C 5,2 C 84 % 1033,5 hPa 0,0 l/m 0,0 km/h (0 Bft) NO 36 0 min 0 W/m 2,8 C 5,3 C 1,6 km/h (1 Bft)
08.04.2020 08:00 5,2 C 5,1 C 84 % 1033,5 hPa 0,0 l/m 0,1 km/h (0 Bft) NO 36 0 min 0 W/m 2,7 C 5,2 C 1,6 km/h (1 Bft)
08.04.2020 07:55 5,1 C 4,9 C 84 % 1033,5 hPa 0,0 l/m 0,1 km/h (0 Bft) NO 35 0 min 0 W/m 2,6 C 5,1 C 1,6 km/h (1 Bft)
08.04.2020 07:50 4,9 C 4,8 C 84 % 1033,5 hPa 0,0 l/m 0,5 km/h (0 Bft) NO 34 0 min 0 W/m 2,4 C 4,9 C 1,6 km/h (1 Bft)
08.04.2020 07:45 4,8 C 4,7 C 84 % 1033,6 hPa 0,0 l/m 0,5 km/h (0 Bft) NO 34 0 min 0 W/m 2,3 C 4,8 C 1,6 km/h (1 Bft)
08.04.2020 07:40 4,7 C 4,7 C 84 % 1033,5 hPa 0,0 l/m 0,0 km/h (0 Bft) N-NO 32 0 min 0 W/m 2,2 C 4,7 C 0,0 km/h (0 Bft)
08.04.2020 07:35 4,7 C 4,7 C 84 % 1033,4 hPa 0,0 l/m 0,0 km/h (0 Bft) N-NO 32 0 min 0 W/m 2,2 C 4,7 C 0,0 km/h (0 Bft)
08.04.2020 07:30 4,7 C 4,7 C 83 % 1033,4 hPa 0,0 l/m 0,0 km/h (0 Bft) N-NO 32 0 min 0 W/m 2,1 C 4,7 C 0,0 km/h (0 Bft)
08.04.2020 07:25 4,7 C 4,7 C 83 % 1033,4 hPa 0,0 l/m 0,0 km/h (0 Bft) N-NO 32 0 min 0 W/m 2,1 C 4,7 C 0,0 km/h (0 Bft)
08.04.2020 07:20 4,7 C 4,7 C 83 % 1033,4 hPa 0,0 l/m 0,0 km/h (0 Bft) N-NO 32 0 min 0 W/m 2,1 C 4,7 C 0,0 km/h (0 Bft)
08.04.2020 07:15 4,7 C 4,7 C 83 % 1033,4 hPa 0,0 l/m 0,0 km/h (0 Bft) N-NO 32 0 min 0 W/m 2,1 C 4,7 C 0,0 km/h (0 Bft)
08.04.2020 07:10 4,7 C 4,7 C 83 % 1033,4 hPa 0,0 l/m 0,0 km/h (0 Bft) N-NO 32 0 min 0 W/m 2,1 C 4,7 C 1,6 km/h (1 Bft)
08.04.2020 07:05 4,7 C 4,7 C 83 % 1033,3 hPa 0,0 l/m 0,3 km/h (0 Bft) N-NO 32 0 min 0 W/m 2,1 C 4,7 C 1,6 km/h (1 Bft)
08.04.2020 07:00 4,8 C 4,8 C 83 % 1033,3 hPa 0,0 l/m 0,7 km/h (0 Bft) NO 44 0 min 0 W/m 2,2 C 4,8 C 3,2 km/h (1 Bft)
08.04.2020 06:55 4,8 C 4,8 C 82 % 1033,3 hPa 0,0 l/m 0,8 km/h (0 Bft) NO 46 0 min 0 W/m 2,0 C 4,8 C 3,2 km/h (1 Bft)
08.04.2020 06:50 4,8 C 4,8 C 82 % 1033,3 hPa 0,0 l/m 0,0 km/h (0 Bft) NO 49 0 min 0 W/m 2,0 C 4,8 C 0,0 km/h (0 Bft)
08.04.2020 06:45 4,9 C 4,9 C 82 % 1033,3 hPa 0,0 l/m 0,1 km/h (0 Bft) NO 49 0 min 0 W/m 2,1 C 4,9 C 1,6 km/h (1 Bft)
08.04.2020 06:40 5,0 C 5,0 C 82 % 1033,3 hPa 0,0 l/m 0,2 km/h (0 Bft) N-NO 24 0 min 0 W/m 2,2 C 5,0 C 3,2 km/h (1 Bft)
08.04.2020 06:35 5,1 C 5,1 C 81 % 1033,2 hPa 0,0 l/m 0,3 km/h (0 Bft) N-NO 17 0 min 0 W/m 2,1 C 5,1 C 1,6 km/h (1 Bft)
08.04.2020 06:30 5,1 C 5,1 C 81 % 1033,2 hPa 0,0 l/m 0,2 km/h (0 Bft) S 173 0 min 0 W/m 2,1 C 5,1 C 1,6 km/h (1 Bft)
08.04.2020 06:25 5,2 C 5,2 C 81 % 1033,2 hPa 0,0 l/m 0,1 km/h (0 Bft) S 173 0 min 0 W/m 2,2 C 5,2 C 1,6 km/h (1 Bft)
08.04.2020 06:20 5,2 C 5,2 C 81 % 1033,2 hPa 0,0 l/m 0,0 km/h (0 Bft) S 174 0 min 0 W/m 2,2 C 5,2 C 0,0 km/h (0 Bft)
08.04.2020 06:15 5,3 C 5,3 C 80 % 1033,1 hPa 0,0 l/m 0,0 km/h (0 Bft) S 178 0 min 0 W/m 2,1 C 5,3 C 0,0 km/h (0 Bft)
08.04.2020 06:10 5,3 C 5,3 C 80 % 1033,1 hPa 0,0 l/m 0,0 km/h (0 Bft) S 190 0 min 0 W/m 2,1 C 5,3 C 0,0 km/h (0 Bft)
08.04.2020 06:05 5,4 C 5,4 C 80 % 1033,2 hPa 0,0 l/m 0,0 km/h (0 Bft) S 190 0 min 0 W/m 2,2 C 5,4 C 0,0 km/h (0 Bft)
08.04.2020 06:00 5,4 C 5,4 C 80 % 1033,1 hPa 0,0 l/m 0,0 km/h (0 Bft) S 190 0 min 0 W/m 2,2 C 5,4 C 0,0 km/h (0 Bft)
08.04.2020 05:55 5,5 C 5,5 C 80 % 1033,1 hPa 0,0 l/m 0,0 km/h (0 Bft) S 190 0 min 0 W/m 2,3 C 5,5 C 0,0 km/h (0 Bft)
08.04.2020 05:50 5,6 C 5,6 C 80 % 1033,1 hPa 0,0 l/m 0,0 km/h (0 Bft) S 190 0 min 0 W/m 2,4 C 5,6 C 0,0 km/h (0 Bft)
08.04.2020 05:45 5,6 C 5,6 C 80 % 1033,2 hPa 0,0 l/m 0,0 km/h (0 Bft) S 190 0 min 0 W/m 2,4 C 5,6 C 0,0 km/h (0 Bft)
08.04.2020 05:40 5,7 C 5,7 C 80 % 1033,2 hPa 0,0 l/m 0,0 km/h (0 Bft) S 190 0 min 0 W/m 2,5 C 5,7 C 0,0 km/h (0 Bft)
08.04.2020 05:35 5,8 C 5,8 C 79 % 1033,2 hPa 0,0 l/m 0,0 km/h (0 Bft) S 190 0 min 0 W/m 2,4 C 5,8 C 0,0 km/h (0 Bft)
08.04.2020 05:30 5,8 C 5,8 C 79 % 1033,2 hPa 0,0 l/m 0,0 km/h (0 Bft) S 190 0 min 0 W/m 2,4 C 5,8 C 0,0 km/h (0 Bft)
08.04.2020 05:25 5,9 C 5,9 C 79 % 1033,1 hPa 0,0 l/m 0,0 km/h (0 Bft) S 190 0 min 0 W/m 2,5 C 5,9 C 0,0 km/h (0 Bft)
08.04.2020 05:20 6,0 C 6,0 C 78 % 1033,1 hPa 0,0 l/m 0,0 km/h (0 Bft) S 190 0 min 0 W/m 2,5 C 6,0 C 0,0 km/h (0 Bft)
08.04.2020 05:15 6,1 C 6,1 C 78 % 1033,1 hPa 0,0 l/m 0,0 km/h (0 Bft) S 190 0 min 0 W/m 2,6 C 6,1 C 0,0 km/h (0 Bft)
08.04.2020 05:10 6,2 C 6,2 C 78 % 1033,2 hPa 0,0 l/m 0,0 km/h (0 Bft) S 190 0 min 0 W/m 2,7 C 6,2 C 0,0 km/h (0 Bft)
08.04.2020 05:05 6,3 C 6,3 C 78 % 1033,1 hPa 0,0 l/m 0,0 km/h (0 Bft) S 190 0 min 0 W/m 2,8 C 6,3 C 0,0 km/h (0 Bft)
08.04.2020 05:00 6,3 C 6,3 C 78 % 1033,2 hPa 0,0 l/m 0,0 km/h (0 Bft) S 190 0 min 0 W/m 2,8 C 6,3 C 0,0 km/h (0 Bft)
08.04.2020 04:55 6,4 C 6,4 C 77 % 1033,2 hPa 0,0 l/m 0,0 km/h (0 Bft) S 190 0 min 0 W/m 2,7 C 6,4 C 0,0 km/h (0 Bft)
08.04.2020 04:50 6,6 C 6,6 C 77 % 1033,3 hPa 0,0 l/m 0,0 km/h (0 Bft) S 190 0 min 0 W/m 2,9 C 6,6 C 0,0 km/h (0 Bft)
08.04.2020 04:45 6,7 C 6,7 C 77 % 1033,3 hPa 0,0 l/m 0,0 km/h (0 Bft) S 190 0 min 0 W/m 3,0 C 6,7 C 0,0 km/h (0 Bft)
08.04.2020 04:40 6,7 C 6,7 C 76 % 1033,2 hPa 0,0 l/m 0,2 km/h (0 Bft) S 190 0 min 0 W/m 2,8 C 6,7 C 3,2 km/h (1 Bft)
08.04.2020 04:35 6,8 C 6,8 C 76 % 1033,3 hPa 0,0 l/m 0,1 km/h (0 Bft) S 190 0 min 0 W/m 2,9 C 6,8 C 1,6 km/h (1 Bft)
08.04.2020 04:30 6,9 C 6,9 C 76 % 1033,4 hPa 0,0 l/m 0,6 km/h (0 Bft) S 190 0 min 0 W/m 3,0 C 6,9 C 4,8 km/h (1 Bft)
08.04.2020 04:25 7,0 C 7,0 C 75 % 1033,4 hPa 0,0 l/m 0,1 km/h (0 Bft) S-SW 200 0 min 0 W/m 2,9 C 7,0 C 1,6 km/h (1 Bft)
08.04.2020 04:20 7,1 C 7,1 C 75 % 1033,5 hPa 0,0 l/m 0,0 km/h (0 Bft) S-SW 200 0 min 0 W/m 3,0 C 7,1 C 1,6 km/h (1 Bft)
08.04.2020 04:15 7,2 C 7,2 C 75 % 1033,5 hPa 0,0 l/m 0,1 km/h (0 Bft) S-SW 200 0 min 0 W/m 3,1 C 7,2 C 1,6 km/h (1 Bft)
08.04.2020 04:10 7,3 C 7,3 C 74 % 1033,5 hPa 0,0 l/m 0,2 km/h (0 Bft) S-SW 200 0 min 0 W/m 3,0 C 7,3 C 1,6 km/h (1 Bft)
08.04.2020 04:05 7,4 C 7,4 C 74 % 1033,5 hPa 0,0 l/m 0,0 km/h (0 Bft) S-SW 200 0 min 0 W/m 3,1 C 7,4 C 0,0 km/h (0 Bft)
08.04.2020 04:00 7,5 C 7,5 C 74 % 1033,4 hPa 0,0 l/m 0,8 km/h (0 Bft) S-SW 200 0 min 0 W/m 3,2 C 7,5 C 3,2 km/h (1 Bft)
08.04.2020 03:55 7,7 C 7,7 C 73 % 1033,4 hPa 0,0 l/m 0,0 km/h (0 Bft) S-SW 199 0 min 0 W/m 3,2 C 7,7 C 0,0 km/h (0 Bft)
08.04.2020 03:50 7,9 C 7,9 C 72 % 1033,4 hPa 0,0 l/m 0,2 km/h (0 Bft) S-SW 199 0 min 0 W/m 3,2 C 7,9 C 3,2 km/h (1 Bft)
08.04.2020 03:45 8,1 C 8,1 C 72 % 1033,5 hPa 0,0 l/m 0,7 km/h (0 Bft) S-SW 199 0 min 0 W/m 3,4 C 8,1 C 3,2 km/h (1 Bft)
08.04.2020 03:40 8,2 C 8,2 C 72 % 1033,4 hPa 0,0 l/m 0,6 km/h (0 Bft) S-SW 199 0 min 0 W/m 3,5 C 8,2 C 3,2 km/h (1 Bft)
08.04.2020 03:35 8,2 C 8,2 C 72 % 1033,4 hPa 0,0 l/m 0,3 km/h (0 Bft) S-SW 199 0 min 0 W/m 3,5 C 8,2 C 3,2 km/h (1 Bft)
08.04.2020 03:30 8,2 C 8,2 C 72 % 1033,5 hPa 0,0 l/m 1,5 km/h (1 Bft) S-SW 199 0 min 0 W/m 3,5 C 8,2 C 3,2 km/h (1 Bft)
08.04.2020 03:25 8,2 C 8,2 C 71 % 1033,5 hPa 0,0 l/m 1,2 km/h (1 Bft) S-SW 197 0 min 0 W/m 3,3 C 8,2 C 4,8 km/h (1 Bft)
08.04.2020 03:20 8,2 C 8,2 C 71 % 1033,5 hPa 0,0 l/m 2,5 km/h (1 Bft) SW 217 0 min 0 W/m 3,3 C 8,2 C 8,0 km/h (2 Bft)
08.04.2020 03:15 8,3 C 8,3 C 72 % 1033,6 hPa 0,0 l/m 2,5 km/h (1 Bft) S 189 0 min 0 W/m 3,6 C 8,3 C 4,8 km/h (1 Bft)
08.04.2020 03:10 8,3 C 8,3 C 71 % 1033,6 hPa 0,0 l/m 1,9 km/h (1 Bft) S 189 0 min 0 W/m 3,4 C 8,3 C 4,8 km/h (1 Bft)
08.04.2020 03:05 8,4 C 8,4 C 71 % 1033,6 hPa 0,0 l/m 1,7 km/h (1 Bft) S 191 0 min 0 W/m 3,5 C 8,4 C 4,8 km/h (1 Bft)
08.04.2020 03:00 8,4 C 8,4 C 71 % 1033,5 hPa 0,0 l/m 1,1 km/h (1 Bft) S-SW 192 0 min 0 W/m 3,5 C 8,4 C 3,2 km/h (1 Bft)
08.04.2020 02:55 8,5 C 8,5 C 71 % 1033,5 hPa 0,0 l/m 0,4 km/h (0 Bft) S-SW 193 0 min 0 W/m 3,5 C 8,5 C 3,2 km/h (1 Bft)
08.04.2020 02:50 8,5 C 8,5 C 71 % 1033,6 hPa 0,0 l/m 0,5 km/h (0 Bft) S-SW 193 0 min 0 W/m 3,5 C 8,5 C 3,2 km/h (1 Bft)
08.04.2020 02:45 8,6 C 8,6 C 71 % 1033,6 hPa 0,0 l/m 2,3 km/h (1 Bft) S-SW 193 0 min 0 W/m 3,6 C 8,6 C 6,4 km/h (2 Bft)
08.04.2020 02:40 8,6 C 8,5 C 71 % 1033,6 hPa 0,0 l/m 2,1 km/h (1 Bft) S 178 0 min 0 W/m 3,6 C 8,6 C 4,8 km/h (1 Bft)
08.04.2020 02:35 8,5 C 8,5 C 71 % 1033,6 hPa 0,0 l/m 1,9 km/h (1 Bft) SW 217 0 min 0 W/m 3,5 C 8,5 C 4,8 km/h (1 Bft)
08.04.2020 02:30 8,5 C 8,4 C 71 % 1033,7 hPa 0,0 l/m 4,0 km/h (1 Bft) S-SW 213 0 min 0 W/m 3,5 C 8,5 C 9,7 km/h (2 Bft)
08.04.2020 02:25 8,4 C 8,4 C 71 % 1033,7 hPa 0,0 l/m 3,7 km/h (1 Bft) S 188 0 min 0 W/m 3,5 C 8,4 C 8,0 km/h (2 Bft)
08.04.2020 02:20 8,4 C 8,4 C 72 % 1033,7 hPa 0,0 l/m 2,5 km/h (1 Bft) S-SW 192 0 min 0 W/m 3,7 C 8,4 C 4,8 km/h (1 Bft)
08.04.2020 02:15 8,5 C 8,5 C 72 % 1033,8 hPa 0,0 l/m 1,6 km/h (1 Bft) S-SW 192 0 min 0 W/m 3,7 C 8,5 C 4,8 km/h (1 Bft)
08.04.2020 02:10 8,6 C 8,6 C 72 % 1033,8 hPa 0,0 l/m 2,0 km/h (1 Bft) SW 217 0 min 0 W/m 3,8 C 8,6 C 4,8 km/h (1 Bft)
08.04.2020 02:05 8,7 C 8,7 C 71 % 1033,8 hPa 0,0 l/m 0,8 km/h (0 Bft) SW 233 0 min 0 W/m 3,7 C 8,7 C 3,2 km/h (1 Bft)
08.04.2020 02:00 8,7 C 8,7 C 71 % 1033,8 hPa 0,0 l/m 0,0 km/h (0 Bft) N-NW 340 0 min 0 W/m 3,7 C 8,7 C 0,0 km/h (0 Bft)
08.04.2020 01:55 8,8 C 8,8 C 71 % 1033,8 hPa 0,0 l/m 0,0 km/h (0 Bft) N-NW 340 0 min 0 W/m 3,8 C 8,8 C 1,6 km/h (1 Bft)
08.04.2020 01:50 8,9 C 8,8 C 70 % 1033,8 hPa 0,0 l/m 0,5 km/h (0 Bft) N-NW 340 0 min 0 W/m 3,7 C 8,9 C 3,2 km/h (1 Bft)
08.04.2020 01:45 8,9 C 8,9 C 70 % 1033,9 hPa 0,0 l/m 0,2 km/h (0 Bft) N-NW 346 0 min 0 W/m 3,7 C 8,9 C 1,6 km/h (1 Bft)
08.04.2020 01:40 9,0 C 9,0 C 69 % 1033,9 hPa 0,0 l/m 0,1 km/h (0 Bft) N-NW 346 0 min 0 W/m 3,6 C 9,0 C 1,6 km/h (1 Bft)
08.04.2020 01:35 9,0 C 9,0 C 69 % 1033,9 hPa 0,0 l/m 0,5 km/h (0 Bft) N-NW 346 0 min 0 W/m 3,6 C 9,0 C 3,2 km/h (1 Bft)
08.04.2020 01:30 9,1 C 9,1 C 69 % 1033,9 hPa 0,0 l/m 2,0 km/h (1 Bft) N-NW 345 0 min 0 W/m 3,7 C 9,1 C 4,8 km/h (1 Bft)
08.04.2020 01:25 9,1 C 9,1 C 69 % 1033,9 hPa 0,0 l/m 1,0 km/h (0 Bft) N-NW 345 0 min 0 W/m 3,7 C 9,1 C 3,2 km/h (1 Bft)
08.04.2020 01:20 9,1 C 9,1 C 69 % 1033,9 hPa 0,0 l/m 0,4 km/h (0 Bft) N-NW 333 0 min 0 W/m 3,7 C 9,1 C 3,2 km/h (1 Bft)
08.04.2020 01:15 9,1 C 9,1 C 69 % 1033,9 hPa 0,0 l/m 0,0 km/h (0 Bft) N-NW 333 0 min 0 W/m 3,7 C 9,1 C 0,0 km/h (0 Bft)
08.04.2020 01:10 9,2 C 9,2 C 68 % 1033,9 hPa 0,0 l/m 0,0 km/h (0 Bft) N-NW 333 0 min 0 W/m 3,6 C 9,2 C 0,0 km/h (0 Bft)
08.04.2020 01:05 9,2 C 9,2 C 68 % 1033,9 hPa 0,0 l/m 0,0 km/h (0 Bft) N-NW 333 0 min 0 W/m 3,6 C 9,2 C 0,0 km/h (0 Bft)
08.04.2020 01:00 9,3 C 9,3 C 68 % 1034,0 hPa 0,0 l/m 0,0 km/h (0 Bft) N-NW 333 0 min 0 W/m 3,7 C 9,3 C 0,0 km/h (0 Bft)
08.04.2020 00:55 9,3 C 9,3 C 68 % 1034,0 hPa 0,0 l/m 0,0 km/h (0 Bft) N-NW 333 0 min 0 W/m 3,7 C 9,3 C 0,0 km/h (0 Bft)
08.04.2020 00:50 9,4 C 9,4 C 68 % 1034,0 hPa 0,0 l/m 0,0 km/h (0 Bft) N-NW 333 0 min 0 W/m 3,8 C 9,4 C 0,0 km/h (0 Bft)
08.04.2020 00:45 9,5 C 9,5 C 67 % 1034,0 hPa 0,0 l/m 0,0 km/h (0 Bft) N-NW 333 0 min 0 W/m 3,7 C 9,5 C 1,6 km/h (1 Bft)
08.04.2020 00:40 9,6 C 9,6 C 67 % 1034,0 hPa 0,0 l/m 0,4 km/h (0 Bft) N-NW 333 0 min 0 W/m 3,8 C 9,6 C 3,2 km/h (1 Bft)
08.04.2020 00:35 9,6 C 9,6 C 67 % 1034,0 hPa 0,0 l/m 0,0 km/h (0 Bft) N-NW 332 0 min 0 W/m 3,8 C 9,6 C 0,0 km/h (0 Bft)
08.04.2020 00:30 9,7 C 9,7 C 66 % 1034,0 hPa 0,0 l/m 1,1 km/h (1 Bft) N-NW 332 0 min 0 W/m 3,7 C 9,7 C 3,2 km/h (1 Bft)
08.04.2020 00:25 9,8 C 9,8 C 66 % 1034,0 hPa 0,0 l/m 0,8 km/h (0 Bft) NO 41 0 min 0 W/m 3,8 C 9,8 C 1,6 km/h (1 Bft)
08.04.2020 00:20 9,9 C 9,9 C 66 % 1034,0 hPa 0,0 l/m 0,7 km/h (0 Bft) NO 49 0 min 0 W/m 3,9 C 9,9 C 3,2 km/h (1 Bft)
08.04.2020 00:15 10,0 C 10,0 C 65 % 1034,0 hPa 0,0 l/m 1,1 km/h (1 Bft) NO 46 0 min 0 W/m 3,7 C 10,0 C 4,8 km/h (1 Bft)
08.04.2020 00:10 10,2 C 10,2 C 65 % 1034,0 hPa 0,0 l/m 1,3 km/h (1 Bft) NO 46 0 min 0 W/m 3,9 C 10,2 C 3,2 km/h (1 Bft)
08.04.2020 00:05 10,3 C 10,3 C 64 % 1034,0 hPa 0,0 l/m 2,2 km/h (1 Bft) NO 44 0 min 0 W/m 3,8 C 10,3 C 4,8 km/h (1 Bft)
08.04.2020 00:00 10,5 C 10,5 C 64 % 1033,9 hPa 0,0 l/m 1,7 km/h (1 Bft) N-NO 15 0 min 0 W/m 4,0 C 10,5 C 3,2 km/h (1 Bft)
_ Min-Zeit 07:05 07:05 11:15 11:10 - 00:35 - - - - 06:50 07:05 00:35
Minimum _ 4,7 C 4,7 C 41 % 1032,9 hPa - 0,0 km/h (0 Bft) - - - - 2,0 C 4,7 C 0,0 km/h (0 Bft)
_ Max-Zeit 11:25 11:25 07:35 00:05 00:00 02:30 - - 00:00 00:00 10:15 11:25 02:30
Maximum _ 17,9 C 17,5 C 84 % 1034,0 hPa 0,0 l/m 4,0 km/h
S-SW (1 Bft)
- - 0 min 0 W/m 6,5 C 17,9 C 9,7 km/h
SW (2 Bft)
Durchschnitt _ 8,7 C 8,6 C 72 % 1033,4 hPa #0,0 l/m 0,6 km/h (0 Bft) S-SW - #0 min. 0 W/m 3,7 C 8,7 C 2,5 km/h (1 Bft)